• In Österreich
  • Länderverzeichnis
  • Für 7 Tage
  • Wassertemperatur
  • Satellitenkarten
  • Wetterkarte
  • News
  • Widgets
  • user-avatar
    Anmelden

    Stündliche Wetter Montana

    Heute, 15 Oktober, Montag

    Zeit Temperatur Niederschläge Wind Luftdruck Luftfeuchtigkeit
    00:00 +11°C° 0 mm 1 m/S 740 mmHg 65%
    01:00 +11°C° 0 mm 1 m/S 741 mmHg 67%
    02:00 +11°C° 0 mm 1 m/S 741 mmHg 68%
    03:00 +10°C° 0 mm 1 m/S 741 mmHg 70%
    04:00 +10°C° 0 mm 1 m/S 740 mmHg 72%
    05:00 +10°C° 0 mm 1 m/S 740 mmHg 75%
    06:00 +10°C° 0 mm 1 m/S 740 mmHg 73%
    07:00 +11°C° 0 mm 1 m/S 741 mmHg 71%
    08:00 +12°C° 0 mm 1 m/S 740 mmHg 67%
    09:00 +14°C° 0 mm 2 m/S 740 mmHg 60%
    10:00 +16°C° 0 mm 2 m/S 740 mmHg 53%
    11:00 +18°C° 0 mm 3 m/S 740 mmHg 46%
    12:00 +19°C° 0 mm 3 m/S 740 mmHg 43%
    13:00 +20°C° 0 mm 3 m/S 740 mmHg 40%
    14:00 +21°C° 0 mm 3 m/S 740 mmHg 38%
    15:00 +20°C° 0 mm 3 m/S 739 mmHg 40%
    16:00 +20°C° 0 mm 3 m/S 739 mmHg 42%
    17:00 +19°C° 0 mm 2 m/S 739 mmHg 44%
    18:00 +17°C° 0 mm 2 m/S 739 mmHg 50%
    19:00 +16°C° 0 mm 2 m/S 739 mmHg 55%
    20:00 +14°C° 0 mm 1 m/S 739 mmHg 61%
    21:00 +14°C° 0 mm 1 m/S 739 mmHg 63%
    22:00 +13°C° 0 mm 1 m/S 739 mmHg 64%
    23:00 +13°C° 0 mm 1 m/S 739 mmHg 66%

    Morgen, 16 Oktober, Dienstag

    Zeit Temperatur Niederschläge Wind Luftdruck Luftfeuchtigkeit
    00:00 +13°C° 0 mm 1 m/S 739 mmHg 67%
    01:00 +12°C° 0 mm 1 m/S 739 mmHg 69%
    02:00 +12°C° 0 mm 1 m/S 739 mmHg 70%
    03:00 +12°C° 0 mm 1 m/S 739 mmHg 71%
    04:00 +11°C° 0 mm 1 m/S 739 mmHg 72%
    05:00 +11°C° 0 mm 1 m/S 739 mmHg 73%
    06:00 +12°C° 0 mm 1 m/S 739 mmHg 70%
    07:00 +12°C° 0 mm 1 m/S 740 mmHg 67%
    08:00 +13°C° 0 mm 1 m/S 740 mmHg 64%
    09:00 +15°C° 0 mm 1 m/S 740 mmHg 56%
    10:00 +18°C° 0 mm 1 m/S 740 mmHg 47%
    11:00 +19°C° 0 mm 2 m/S 740 mmHg 38%
    12:00 +20°C° 0 mm 2 m/S 739 mmHg 35%
    13:00 +21°C° 0 mm 2 m/S 739 mmHg 32%
    14:00 +23°C° 0 mm 2 m/S 739 mmHg 29%
    15:00 +21°C° 0 mm 2 m/S 739 mmHg 32%
    16:00 +20°C° 0 mm 2 m/S 739 mmHg 35%
    17:00 +20°C° 0 mm 2 m/S 738 mmHg 37%
    18:00 +19°C° 0 mm 1 m/S 738 mmHg 42%
    19:00 +16°C° 0 mm 1 m/S 739 mmHg 46%
    20:00 +14°C° 0 mm 1 m/S 739 mmHg 50%
    21:00 +14°C° 0 mm 1 m/S 739 mmHg 52%
    22:00 +14°C° 0 mm 1 m/S 739 mmHg 53%
    23:00 +13°C° 0 mm 1 m/S 739 mmHg 55%

    übermorgen, 17 Oktober, Mittwoch

    Zeit Temperatur Niederschläge Wind Luftdruck Luftfeuchtigkeit
    00:00 +13°C° 0 mm 1 m/S 739 mmHg 56%
    01:00 +13°C° 0 mm 1 m/S 739 mmHg 57%
    02:00 +12°C° 0 mm 1 m/S 739 mmHg 58%
    03:00 +12°C° 0 mm 1 m/S 739 mmHg 60%
    04:00 +12°C° 0 mm 1 m/S 738 mmHg 61%
    05:00 +11°C° 0 mm 1 m/S 738 mmHg 63%
    06:00 +12°C° 0 mm 1 m/S 738 mmHg 61%
    07:00 +13°C° 0 mm 1 m/S 738 mmHg 59%
    08:00 +13°C° 0 mm 1 m/S 738 mmHg 57%
    09:00 +16°C° 0 mm 1 m/S 738 mmHg 51%
    10:00 +19°C° 0 mm 1 m/S 738 mmHg 46%
    11:00 +21°C° 0 mm 1 m/S 738 mmHg 40%
    12:00 +21°C° 0 mm 2 m/S 738 mmHg 39%
    13:00 +23°C° 0 mm 2 m/S 737 mmHg 38%
    14:00 +24°C° 0 mm 2 m/S 737 mmHg 37%
    15:00 +23°C° 0 mm 2 m/S 737 mmHg 41%
    16:00 +21°C° 0 mm 2 m/S 736 mmHg 44%
    17:00 +20°C° 0 mm 2 m/S 736 mmHg 48%
    18:00 +19°C° 0 mm 2 m/S 736 mmHg 54%
    19:00 +18°C° 0 mm 1 m/S 736 mmHg 60%
    20:00 +15°C° 0 mm 1 m/S 736 mmHg 67%
    21:00 +15°C° 0 mm 1 m/S 737 mmHg 69%
    22:00 +15°C° 0 mm 1 m/S 737 mmHg 71%
    23:00 +14°C° 0 mm 1 m/S 737 mmHg 73%

    18 Oktober, Donnerstag

    Zeit Temperatur Niederschläge Wind Luftdruck Luftfeuchtigkeit
    00:00 +14°C° 0 mm 1 m/S 737 mmHg 75%
    01:00 +14°C° 0 mm 1 m/S 737 mmHg 77%
    02:00 +13°C° 0 mm 1 m/S 736 mmHg 78%
    03:00 +13°C° 0 mm 1 m/S 736 mmHg 80%
    04:00 +13°C° 0 mm 1 m/S 736 mmHg 82%
    05:00 +13°C° 0 mm 1 m/S 736 mmHg 83%
    06:00 +13°C° 0 mm 1 m/S 736 mmHg 81%
    07:00 +14°C° 0 mm 1 m/S 736 mmHg 79%
    08:00 +14°C° 0 mm 1 m/S 736 mmHg 76%
    09:00 +16°C° 0 mm 1 m/S 736 mmHg 69%
    10:00 +19°C° 0 mm 1 m/S 736 mmHg 62%
    11:00 +20°C° 0 mm 2 m/S 736 mmHg 55%
    12:00 +21°C° 0 mm 2 m/S 736 mmHg 51%
    13:00 +23°C° 0 mm 2 m/S 735 mmHg 47%
    14:00 +24°C° 0 mm 2 m/S 735 mmHg 43%
    15:00 +23°C° 0 mm 2 m/S 735 mmHg 46%
    16:00 +21°C° 0 mm 2 m/S 735 mmHg 48%
    17:00 +21°C° 0 mm 2 m/S 735 mmHg 50%
    18:00 +19°C° 0 mm 2 m/S 735 mmHg 56%
    19:00 +18°C° 0 mm 1 m/S 735 mmHg 61%
    20:00 +16°C° 0 mm 1 m/S 735 mmHg 67%
    21:00 +15°C° 0 mm 1 m/S 735 mmHg 69%
    22:00 +15°C° 0 mm 1 m/S 735 mmHg 70%
    23:00 +15°C° 0 mm 1 m/S 736 mmHg 72%

    19 Oktober, Freitag

    Zeit Temperatur Niederschläge Wind Luftdruck Luftfeuchtigkeit
    00:00 +14°C° 0 mm 1 m/S 736 mmHg 73%
    01:00 +14°C° 0 mm 1 m/S 736 mmHg 75%
    02:00 +13°C° 0 mm 0 m/S 736 mmHg 76%
    03:00 +13°C° 0 mm 1 m/S 736 mmHg 77%
    04:00 +13°C° 0 mm 1 m/S 736 mmHg 79%
    05:00 +13°C° 0 mm 1 m/S 735 mmHg 80%
    06:00 +13°C° 0 mm 1 m/S 736 mmHg 77%
    07:00 +14°C° 0 mm 1 m/S 736 mmHg 74%
    08:00 +15°C° 0 mm 1 m/S 736 mmHg 72%
    09:00 +18°C° 0 mm 1 m/S 736 mmHg 64%
    10:00 +20°C° 0 mm 1 m/S 736 mmHg 56%
    11:00 +23°C° 0 mm 1 m/S 736 mmHg 48%
    12:00 +23°C° 0 mm 1 m/S 736 mmHg 46%
    13:00 +24°C° 0 mm 1 m/S 735 mmHg 44%
    14:00 +24°C° 0 mm 1 m/S 735 mmHg 41%
    15:00 +24°C° 0 mm 1 m/S 735 mmHg 44%
    16:00 +23°C° 0 mm 1 m/S 735 mmHg 47%
    17:00 +22°C° 0 mm 1 m/S 735 mmHg 50%
    18:00 +20°C° 0 mm 1 m/S 735 mmHg 55%
    19:00 +19°C° 0 mm 1 m/S 735 mmHg 60%
    20:00 +16°C° 0 mm 1 m/S 736 mmHg 65%
    21:00 +16°C° 0 mm 1 m/S 736 mmHg 66%
    22:00 +16°C° 0 mm 1 m/S 736 mmHg 67%
    23:00 +15°C° 0 mm 1 m/S 736 mmHg 68%

    20 Oktober, Samstag

    Zeit Temperatur Niederschläge Wind Luftdruck Luftfeuchtigkeit
    00:00 +15°C° 0 mm 1 m/S 736 mmHg 70%
    01:00 +15°C° 0 mm 1 m/S 736 mmHg 71%
    02:00 +14°C° 0 mm 1 m/S 736 mmHg 72%
    03:00 +14°C° 0 mm 1 m/S 736 mmHg 73%
    04:00 +14°C° 0 mm 1 m/S 736 mmHg 74%
    05:00 +13°C° 0 mm 1 m/S 736 mmHg 76%
    06:00 +14°C° 0 mm 1 m/S 736 mmHg 73%
    07:00 +15°C° 0 mm 2 m/S 737 mmHg 71%
    08:00 +15°C° 0 mm 2 m/S 737 mmHg 69%
    09:00 +17°C° 0 mm 2 m/S 737 mmHg 60%
    10:00 +19°C° 0 mm 3 m/S 737 mmHg 51%
    11:00 +22°C° 0 mm 3 m/S 737 mmHg 42%
    12:00 +22°C° 0 mm 3 m/S 737 mmHg 40%
    13:00 +23°C° 0 mm 4 m/S 737 mmHg 39%
    14:00 +23°C° 0 mm 4 m/S 736 mmHg 38%
    15:00 +22°C° 0 mm 4 m/S 736 mmHg 41%
    16:00 +21°C° 0 mm 4 m/S 736 mmHg 44%
    17:00 +20°C° 0 mm 3 m/S 736 mmHg 47%
    18:00 +19°C° 0 mm 3 m/S 737 mmHg 52%
    19:00 +17°C° 0 mm 3 m/S 737 mmHg 57%
    20:00 +16°C° 0 mm 3 m/S 737 mmHg 62%
    21:00 +14°C° 0 mm 3 m/S 737 mmHg 65%
    22:00 +14°C° 0 mm 2 m/S 738 mmHg 68%
    23:00 +14°C° 0 mm 2 m/S 738 mmHg 71%
    Mehr zeigen